[[{"header":{"parameterUnit":"m.s-1","parameterCategory":1,"la1":30.2991,"la2":30.254,"lo1":-89.0895,"lo2":-89.0444,"dy":0.0017,"dx":0.0017,"nx":28,"ny":28,"refTime":"2025-06-04T21:00:00:Z","depth":0,"parameterNumber":2,"parameterNumberName":"U-component_of_WINDS"},"data":[0,0,0,0,0,0,0,0,0,0,0,0,0,0,0,0,0,0,0,0,0,0,0,0,0,0,0,0,0,0,0,0,0,0,0,0,0,0,0,0,0,0,0,0,0,0,0,0,0,0,0,0,0,0,0,0,0,0,1.5579,1.558,0,1.5602,1.5602,1.5602,1.5612,1.5612,1.5611,1.5611,1.5634,1.5634,1.5635,0,0,0,0,0,0,0,0,0,0,0,0,0,1.5543,1.5543,1.5579,1.558,1.558,1.5602,1.5602,1.5602,1.5612,1.5612,1.5611,1.5611,1.5633,1.5634,1.5635,0,0,0,0,0,0,0,0,0,0,0,0,0,1.5561,1.5544,1.5579,1.5587,1.5588,1.5602,1.5602,1.5602,1.5612,1.5612,1.5611,1.5611,1.5633,1.5634,1.5635,1.5642,0,0,1.5638,1.5638,0,0,0,0,0,0,0,0,1.556,1.5563,1.5586,1.5587,1.5588,1.5604,1.5597,1.5616,1.5612,1.5603,1.5611,1.5611,1.5624,1.5625,1.563,1.5643,1.5644,1.5638,1.5639,1.5639,1.5639,0,0,0,0,0,0,0,1.5559,1.5562,1.5588,1.5586,1.5587,1.5589,1.5592,1.5601,1.5613,1.5603,1.5604,1.5607,1.5624,1.5629,1.563,1.5645,1.5638,1.5639,1.5639,1.564,1.5665,1.5665,0,0,0,0,0,0,1.5556,1.5561,1.5587,1.5589,1.5573,1.559,1.5593,1.5599,1.5613,1.5615,1.5607,1.5607,1.5627,1.5629,1.5631,1.564,1.5639,1.564,1.564,1.5665,1.5665,1.5665,0,0,0,0,0,0,1.5556,1.5559,1.5587,1.5575,1.5579,1.559,1.5597,1.5599,1.5604,1.5616,1.5618,1.5609,1.5627,1.563,1.5639,1.5641,1.564,1.5641,1.5664,1.5665,1.5665,1.5659,0,0,0,0,0,0,1.5555,1.5558,1.5562,1.5575,1.5579,1.5595,1.5597,1.56,1.5606,1.5606,1.5619,1.5621,1.5627,1.5638,1.564,1.5643,1.5642,1.5664,1.5665,1.5665,1.5659,1.5659,1.5659,0,0,0,0,0,1.5553,1.5559,1.5562,1.5565,1.5584,1.5595,1.5597,1.5605,1.5606,1.5609,1.5616,1.562,1.5641,1.5639,1.5642,1.5644,1.5664,1.5664,1.5665,1.5659,1.5659,1.5659,0,0,0,0,0,0,1.5546,1.5561,1.5564,1.5575,1.5583,1.5596,1.5601,1.5605,1.5613,1.5614,1.5623,1.5625,1.5634,1.564,1.5638,1.5652,1.5653,1.5653,1.5648,1.5648,1.5647,1.5646,1.5643,0,0,0,0,0,1.5545,1.5553,1.5566,1.5574,1.5578,1.5589,1.5594,1.5599,1.5609,1.5612,1.5621,1.5629,1.5638,1.5643,1.5651,1.566,1.5663,1.5663,1.5663,1.5663,1.5663,1.5668,1.5668,1.5665,1.5665,1.5665,0,0,1.5544,1.5554,1.5558,1.5573,1.558,1.5588,1.5592,1.56,1.5606,1.5614,1.5623,1.5629,1.564,1.5649,1.5653,1.5654,1.5665,1.5663,1.5663,1.5664,1.5668,1.5669,1.5669,1.5666,1.5666,1.5666,0,0,1.5547,1.5555,1.5562,1.557,1.5581,1.5588,1.5589,1.5602,1.5606,1.5616,1.5622,1.5628,1.5643,1.565,1.5655,1.566,1.5663,1.5662,1.5661,1.5666,1.5666,1.5666,1.5668,1.5668,1.5662,1.5662,1.5662,0,1.5544,1.5557,1.5565,1.5573,1.5579,1.5587,1.5594,1.56,1.5614,1.5618,1.5618,1.5636,1.5643,1.5654,1.5655,1.5659,1.5661,1.5661,1.5665,1.5666,1.5666,1.5668,1.5668,1.5662,1.5662,1.5662,1.5662,0,1.5553,1.5561,1.5566,1.5579,1.5585,1.5593,1.5602,1.5608,1.5612,1.5619,1.5628,1.5637,1.5647,1.565,1.5655,1.5661,1.5662,1.5664,1.5665,1.5666,1.5667,1.5668,1.5662,1.5662,1.5662,1.5662,0,0,1.5551,1.5569,1.557,1.5576,1.5589,1.5596,1.5603,1.5613,1.5618,1.5626,1.5633,1.5644,1.5646,1.5652,1.5658,1.5662,1.5664,1.5663,1.5664,1.5663,1.5672,1.567,1.5671,1.5667,1.5667,1.5667,1.5671,0,1.5555,1.557,1.5578,1.5589,1.5597,1.5603,1.561,1.5618,1.5624,1.5632,1.5638,1.5646,1.5648,1.5652,1.5656,1.5663,1.5666,1.5663,1.5672,1.5673,1.567,1.5672,1.567,1.5673,1.5672,1.5672,1.5672,0,1.5562,1.5571,1.5583,1.5595,1.5599,1.5604,1.5614,1.5621,1.563,1.5634,1.5641,1.5646,1.5654,1.5654,1.5665,1.5662,1.5667,1.567,1.5671,1.5672,1.5672,1.5673,1.5675,1.5675,1.5673,1.5673,1.5673,0,1.556,1.5575,1.5584,1.5589,1.5603,1.5607,1.5612,1.5622,1.5627,1.5635,1.5639,1.5648,1.5653,1.5659,1.5666,1.5666,1.5676,1.5677,1.5679,1.5679,1.5681,1.5681,1.5684,1.5684,1.5684,1.5684,1.5684,0,1.5564,1.5571,1.5583,1.5589,1.5597,1.5605,1.5612,1.5619,1.5627,1.5633,1.5639,1.5645,1.5654,1.5661,1.5667,1.5674,1.5676,1.568,1.5681,1.5679,1.5679,1.5682,1.5682,1.5684,1.5684,1.5684,1.5684,0,1.5563,1.5571,1.5582,1.5594,1.5597,1.5602,1.5612,1.5618,1.5624,1.5632,1.5634,1.5644,1.5652,1.566,1.5671,1.5675,1.5683,1.5684,1.568,1.568,1.5682,1.5682,1.5687,1.5688,1.5688,1.5688,1.5688,0,1.5565,1.557,1.5583,1.5588,1.5594,1.5602,1.5608,1.5616,1.5621,1.5632,1.5636,1.5645,1.5652,1.5665,1.5673,1.5681,1.5683,1.5684,1.5684,1.5682,1.5683,1.5683,1.5683,1.5684,1.5684,1.5684,1.5684,0,1.5567,1.5571,1.5579,1.5589,1.5596,1.5604,1.5611,1.5615,1.5625,1.563,1.5639,1.5645,1.5656,1.5665,1.5674,1.5679,1.5683,1.5684,1.5685,1.5683,1.568,1.5682,1.5679,1.5684,1.5684,1.5684,1.5684,1.5684,1.5568,1.5573,1.5583,1.5592,1.5598,1.5606,1.5611,1.5618,1.5626,1.5636,1.564,1.5649,1.5657,1.567,1.5675,1.5682,1.5683,1.5684,1.5685,1.5685,1.5685,1.5679,1.5684,1.5684,1.5684,1.5684,1.5684,0,1.557,1.5577,1.5585,1.5596,1.5603,1.5606,1.5615,1.5621,1.5628,1.5636,1.5644,1.5653,1.5662,1.567,1.5678,1.5682,1.5684,1.5684,1.5684,1.5685,1.5683,1.5682,1.5682,1.5682,1.5682,1.5682,1.5682,1.5682,1.5573,1.5582,1.5587,1.5599,1.5605,1.5614,1.5619,1.5626,1.5632,1.5643,1.565,1.5655,1.5663,1.5672,1.5679,1.5682,1.5684,1.5684,1.5686,1.5685,1.5685,1.5685,1.5684,1.5684,1.5684,1.5687,1.5687,1.5687]},{"header":{"parameterUnit":"m.s-1","parameterCategory":1,"la1":30.2991,"la2":30.254,"lo1":-89.0895,"lo2":-89.0444,"dy":0.0017,"dx":0.0017,"nx":28,"ny":28,"refTime":"2025-06-04T21:00:00:Z","depth":0,"parameterNumber":3,"parameterNumberName":"V-component_of_WINDS"},"data":[0,0,0,0,0,0,0,0,0,0,0,0,0,0,0,0,0,0,0,0,0,0,0,0,0,0,0,0,0,0,0,0,0,0,0,0,0,0,0,0,0,0,0,0,0,0,0,0,0,0,0,0,0,0,0,0,0,0,2.7517,2.7517,0,2.7512,2.7512,2.7512,2.7511,2.7511,2.7511,2.7511,2.7505,2.7505,2.7505,0,0,0,0,0,0,0,0,0,0,0,0,0,2.7524,2.7524,2.7517,2.7517,2.7517,2.7512,2.7512,2.7512,2.7511,2.7511,2.7511,2.7511,2.7505,2.7505,2.7505,0,0,0,0,0,0,0,0,0,0,0,0,0,2.752,2.7523,2.7517,2.7516,2.7516,2.7512,2.7512,2.7512,2.7511,2.7511,2.7511,2.7511,2.7505,2.7505,2.7505,2.7502,0,0,2.7504,2.7504,0,0,0,0,0,0,0,0,2.752,2.752,2.7516,2.7516,2.7516,2.7512,2.7512,2.7509,2.7511,2.7513,2.7511,2.7511,2.7507,2.7507,2.7506,2.7502,2.7502,2.7504,2.7504,2.7504,2.7503,0,0,0,0,0,0,0,2.752,2.752,2.7515,2.7516,2.7516,2.7515,2.7514,2.7512,2.751,2.7512,2.7512,2.7512,2.7507,2.7506,2.7506,2.7501,2.7504,2.7504,2.7503,2.7503,2.7494,2.7494,0,0,0,0,0,0,2.7521,2.752,2.7515,2.7515,2.7518,2.7515,2.7514,2.7513,2.751,2.7509,2.7512,2.7512,2.7507,2.7506,2.7506,2.7502,2.7504,2.7503,2.7503,2.7494,2.7494,2.7494,0,0,0,0,0,0,2.7521,2.7521,2.7515,2.7518,2.7517,2.7515,2.7513,2.7513,2.7512,2.7509,2.7509,2.7511,2.7507,2.7506,2.7503,2.7502,2.7503,2.7503,2.7494,2.7494,2.7494,2.7495,0,0,0,0,0,0,2.7521,2.7521,2.752,2.7518,2.7517,2.7513,2.7513,2.7513,2.7512,2.7512,2.7509,2.7508,2.7507,2.7503,2.7503,2.7501,2.7503,2.7494,2.7494,2.7494,2.7495,2.7495,2.7494,0,0,0,0,0,2.7522,2.752,2.752,2.7519,2.7516,2.7513,2.7513,2.7511,2.7512,2.7511,2.7509,2.7508,2.7502,2.7503,2.7502,2.7501,2.7495,2.7494,2.7494,2.7495,2.7495,2.7494,0,0,0,0,0,0,2.7523,2.752,2.752,2.7517,2.7516,2.7513,2.7512,2.7511,2.7509,2.7509,2.7507,2.7506,2.7503,2.7502,2.7503,2.7498,2.7498,2.7498,2.7499,2.7499,2.7498,2.7499,2.7502,0,0,0,0,0,2.7523,2.7521,2.7519,2.7517,2.7516,2.7514,2.7513,2.7512,2.751,2.7509,2.7507,2.7504,2.7502,2.75,2.7498,2.7494,2.7493,2.7493,2.7493,2.7493,2.7492,2.749,2.749,2.7494,2.7494,2.7494,0,0,2.7522,2.7521,2.752,2.7517,2.7515,2.7513,2.7513,2.7511,2.751,2.7508,2.7505,2.7504,2.7501,2.7498,2.7496,2.7496,2.7491,2.7493,2.7492,2.7492,2.749,2.7489,2.7489,2.7493,2.7493,2.7493,0,0,2.7521,2.752,2.7518,2.7517,2.7514,2.7513,2.7512,2.751,2.7509,2.7506,2.7505,2.7502,2.7498,2.7496,2.7494,2.7491,2.749,2.7491,2.749,2.7487,2.7487,2.7487,2.7485,2.7485,2.749,2.749,2.749,0,2.7521,2.7518,2.7517,2.7515,2.7514,2.7513,2.7511,2.7509,2.7506,2.7504,2.7505,2.7499,2.7497,2.7493,2.7492,2.7491,2.749,2.7491,2.7487,2.7487,2.7487,2.7485,2.7485,2.749,2.749,2.749,2.749,0,2.7518,2.7516,2.7515,2.7512,2.7511,2.7509,2.7507,2.7505,2.7504,2.7503,2.7499,2.7497,2.7493,2.7492,2.7491,2.7488,2.7488,2.7488,2.7488,2.7486,2.7485,2.7484,2.749,2.749,2.749,2.749,0,0,2.7518,2.7514,2.7514,2.7512,2.7509,2.7507,2.7505,2.7502,2.75,2.7498,2.7496,2.7492,2.7491,2.7489,2.7488,2.7486,2.7483,2.7486,2.7486,2.7485,2.7478,2.7478,2.7478,2.7483,2.7483,2.7483,2.7479,0,2.7516,2.7512,2.7511,2.7507,2.7505,2.7504,2.7501,2.7499,2.7497,2.7495,2.7493,2.749,2.749,2.7489,2.7487,2.7484,2.7482,2.7484,2.748,2.748,2.748,2.7477,2.7477,2.7474,2.7478,2.7478,2.7478,0,2.7513,2.7511,2.7507,2.7504,2.7503,2.7501,2.7498,2.7496,2.7493,2.7492,2.749,2.7488,2.7485,2.7486,2.7481,2.7482,2.748,2.7479,2.7478,2.7478,2.7479,2.7476,2.7473,2.7472,2.7477,2.7477,2.7477,0,2.7513,2.7509,2.7506,2.7505,2.7501,2.75,2.7498,2.7495,2.7493,2.749,2.7489,2.7485,2.7484,2.7481,2.7478,2.7479,2.7473,2.7474,2.7471,2.7471,2.747,2.747,2.7466,2.7469,2.7469,2.7469,2.7469,0,2.7511,2.7508,2.7506,2.7504,2.7501,2.7499,2.7496,2.7494,2.7492,2.7489,2.7488,2.7485,2.7482,2.7479,2.7477,2.7473,2.7472,2.747,2.747,2.747,2.7471,2.7469,2.7469,2.7469,2.7469,2.7469,2.7469,0,2.751,2.7508,2.7505,2.7501,2.7501,2.7499,2.7495,2.7493,2.7491,2.7488,2.7487,2.7484,2.748,2.7477,2.7472,2.7471,2.7466,2.7466,2.7467,2.7467,2.7465,2.7465,2.7459,2.7458,2.7462,2.7462,2.7462,0,2.7509,2.7507,2.7503,2.7502,2.75,2.7497,2.7495,2.7493,2.7491,2.7487,2.7485,2.7481,2.7478,2.7472,2.7469,2.7465,2.7464,2.7462,2.7463,2.7464,2.7463,2.7463,2.7463,2.7462,2.7462,2.7462,2.7462,0,2.7506,2.7506,2.7503,2.75,2.7498,2.7495,2.7492,2.7491,2.7488,2.7486,2.7482,2.7479,2.7474,2.747,2.7465,2.7463,2.7462,2.7461,2.7461,2.7461,2.7462,2.7461,2.7466,2.7462,2.7462,2.7462,2.7462,2.7462,2.7505,2.7503,2.75,2.7497,2.7495,2.7493,2.749,2.7488,2.7485,2.7481,2.7479,2.7475,2.7471,2.7465,2.7463,2.7459,2.7459,2.7458,2.7458,2.7457,2.7457,2.7463,2.7458,2.7458,2.7458,2.7458,2.7458,0,2.7503,2.7501,2.7498,2.7494,2.7492,2.7491,2.7488,2.7485,2.7482,2.7479,2.7476,2.7471,2.7466,2.7463,2.7458,2.7456,2.7455,2.7455,2.7455,2.7454,2.7457,2.7458,2.7455,2.7455,2.7455,2.7455,2.7455,2.7455,2.7501,2.7498,2.7496,2.7491,2.7489,2.7486,2.7484,2.7481,2.7478,2.7473,2.747,2.7467,2.7464,2.7459,2.7454,2.7453,2.7452,2.7451,2.745,2.7453,2.7454,2.7454,2.7455,2.7451,2.7451,2.7447,2.7447,2.7447]}]]